Tracking 31013 objects as of 11-Jul-2025
HD Live streaming from Space Station
objects crossing your sky now

GAOFEN 3 DEB

Track GAOFEN 3 DEB now!
10-day predictions


NORAD ID: 42679
Int'l Code: 2016-049D
Perigee: 740.2 km
Apogee: 748.6 km
Inclination: 98.3 °
Period: 99.6 minutes
Semi major axis: 7115 km
RCS: Unknown
Launch date: August 9, 2016
Source: People's Republic of China (PRC)
Launch site: Jiuquan Satellite Launch Center, China (JSC)

Note: This is SATELLITE DEBRIS
Your satellite tracking list
Your tracking list is empty




NASA's NSSDC Master Catalog

Two Line Element Set (TLE):
1 42679U 16049D   25191.28318772  .00000124  00000-0  46419-4 0  9999
2 42679  98.3259 203.7087 0005888 325.3868  34.6940 14.46443988470409
Source of the keplerian elements: AFSPC